Location: White Plains
(41.0340°N, 73.7629°W)
Time: 02:27:03
(UTC-04:00)

LightSail 2 - Visible Passes

Search period start: 15 October 2019 00:00
Search period end: 25 October 2019 00:00
Orbit: 707 x 723 km, 24.0° (Epoch: 13 October)

Date Brightness Start Highest point End Pass type
(mag) Time Alt. Az. Time Alt. Az. Time Alt. Az.
15 Oct 7.4 19:50:01 10° SSW 19:51:37 11° S 19:53:14 10° SSE visible
16 Oct 7.5 18:52:48 10° SSW 18:54:20 11° S 18:55:52 10° SSE visible
17 Oct 7.6 19:40:43 10° SSW 19:41:38 10° S 19:42:32 10° S visible
18 Oct 7.6 18:42:53 10° SSW 18:44:20 11° S 18:45:45 10° SSE visible
